• In Deutschland
  • Länderverzeichnis
  • Für 7 Tage
  • Wassertemperatur
  • Satellitenkarten
  • Wetterkarte
  • Widgets
  • user-avatar
    Anmelden

    Stündliche Wetter Shaki

    Heute, 23 Juli, Sonntag

    Zeit Temperatur Niederschläge Wind Luftdruck Luftfeuchtigkeit
    00:00 +28°C° 0 mm 2 m/S 733 mmHg 27%
    01:00 +28°C° 0 mm 2 m/S 732 mmHg 28%
    02:00 +28°C° 0 mm 2 m/S 732 mmHg 30%
    03:00 +27°C° 0 mm 2 m/S 732 mmHg 31%
    04:00 +28°C° 0 mm 2 m/S 732 mmHg 32%
    05:00 +28°C° 0 mm 2 m/S 732 mmHg 33%
    06:00 +29°C° 0 mm 2 m/S 732 mmHg 34%
    07:00 +31°C° 0 mm 2 m/S 732 mmHg 29%
    08:00 +34°C° 0 mm 2 m/S 732 mmHg 25%
    09:00 +36°C° 0 mm 2 m/S 731 mmHg 21%
    10:00 +37°C° 0 mm 2 m/S 731 mmHg 20%
    11:00 +38°C° 0 mm 2 m/S 731 mmHg 19%
    12:00 +39°C° 0 mm 2 m/S 730 mmHg 18%
    13:00 +39°C° 0 mm 2 m/S 730 mmHg 18%
    14:00 +39°C° 0 mm 2 m/S 730 mmHg 17%
    15:00 +40°C° 0 mm 2 m/S 730 mmHg 17%
    16:00 +39°C° 0 mm 2 m/S 730 mmHg 18%
    17:00 +38°C° 0 mm 2 m/S 730 mmHg 20%
    18:00 +38°C° 0 mm 2 m/S 730 mmHg 21%
    19:00 +36°C° 0 mm 2 m/S 730 mmHg 24%
    20:00 +34°C° 0 mm 2 m/S 731 mmHg 26%
    21:00 +31°C° 0 mm 2 m/S 731 mmHg 28%
    22:00 +30°C° 0 mm 2 m/S 731 mmHg 30%
    23:00 +30°C° 0 mm 2 m/S 732 mmHg 32%

    Morgen, 24 Juli, Montag

    Zeit Temperatur Niederschläge Wind Luftdruck Luftfeuchtigkeit
    00:00 +29°C° 0 mm 2 m/S 732 mmHg 34%
    01:00 +29°C° 0 mm 2 m/S 732 mmHg 34%
    02:00 +28°C° 0 mm 2 m/S 732 mmHg 35%
    03:00 +28°C° 0 mm 2 m/S 732 mmHg 36%
    04:00 +28°C° 0 mm 2 m/S 732 mmHg 37%
    05:00 +28°C° 0 mm 2 m/S 732 mmHg 38%
    06:00 +28°C° 0 mm 2 m/S 732 mmHg 40%
    07:00 +30°C° 0 mm 2 m/S 732 mmHg 35%
    08:00 +31°C° 0 mm 2 m/S 732 mmHg 30%
    09:00 +33°C° 0 mm 1 m/S 732 mmHg 25%
    10:00 +35°C° 0 mm 2 m/S 731 mmHg 23%
    11:00 +36°C° 0 mm 3 m/S 731 mmHg 21%
    12:00 +37°C° 0 mm 3 m/S 731 mmHg 20%
    13:00 +38°C° 0 mm 4 m/S 731 mmHg 19%
    14:00 +38°C° 0 mm 4 m/S 730 mmHg 18%
    15:00 +40°C° 0 mm 5 m/S 730 mmHg 17%
    16:00 +38°C° 0 mm 4 m/S 730 mmHg 19%
    17:00 +37°C° 0 mm 4 m/S 730 mmHg 21%
    18:00 +37°C° 0 mm 4 m/S 730 mmHg 23%
    19:00 +35°C° 0 mm 4 m/S 730 mmHg 26%
    20:00 +33°C° 0 mm 4 m/S 730 mmHg 29%
    21:00 +30°C° 0 mm 3 m/S 730 mmHg 31%
    22:00 +29°C° 0 mm 3 m/S 730 mmHg 34%
    23:00 +28°C° 0 mm 3 m/S 730 mmHg 36%

    übermorgen, 25 Juli, Dienstag

    Zeit Temperatur Niederschläge Wind Luftdruck Luftfeuchtigkeit
    00:00 +27°C° 0 mm 3 m/S 730 mmHg 38%
    01:00 +27°C° 0 mm 2 m/S 730 mmHg 39%
    02:00 +27°C° 0 mm 2 m/S 730 mmHg 40%
    03:00 +26°C° 0 mm 2 m/S 730 mmHg 41%
    04:00 +27°C° 0 mm 1 m/S 730 mmHg 40%
    05:00 +27°C° 0 mm 1 m/S 730 mmHg 39%
    06:00 +28°C° 0 mm 1 m/S 730 mmHg 39%
    07:00 +29°C° 0 mm 1 m/S 730 mmHg 36%
    08:00 +31°C° 0 mm 2 m/S 730 mmHg 33%
    09:00 +34°C° 0 mm 2 m/S 730 mmHg 29%
    10:00 +35°C° 0 mm 2 m/S 729 mmHg 27%
    11:00 +36°C° 0 mm 2 m/S 729 mmHg 25%
    12:00 +37°C° 0 mm 2 m/S 729 mmHg 23%
    13:00 +37°C° 0 mm 2 m/S 728 mmHg 22%
    14:00 +38°C° 0 mm 2 m/S 728 mmHg 21%
    15:00 +38°C° 0 mm 2 m/S 728 mmHg 20%
    16:00 +38°C° 0 mm 2 m/S 728 mmHg 21%
    17:00 +37°C° 0 mm 2 m/S 728 mmHg 22%
    18:00 +37°C° 0 mm 2 m/S 728 mmHg 23%
    19:00 +35°C° 0 mm 2 m/S 728 mmHg 25%
    20:00 +32°C° 0 mm 2 m/S 729 mmHg 26%
    21:00 +30°C° 0 mm 3 m/S 729 mmHg 28%
    22:00 +29°C° 0,1 mm 2 m/S 729 mmHg 29%
    23:00 +29°C° 0,1 mm 2 m/S 729 mmHg 30%

    26 Juli, Mittwoch

    Zeit Temperatur Niederschläge Wind Luftdruck Luftfeuchtigkeit
    00:00 +29°C° 0,1 mm 2 m/S 729 mmHg 31%
    01:00 +28°C° 0 mm 2 m/S 729 mmHg 33%
    02:00 +28°C° 0 mm 2 m/S 729 mmHg 34%
    03:00 +27°C° 0 mm 2 m/S 729 mmHg 36%
    04:00 +28°C° 0 mm 2 m/S 729 mmHg 37%
    05:00 +28°C° 0 mm 2 m/S 729 mmHg 37%
    06:00 +29°C° 0 mm 2 m/S 729 mmHg 38%
    07:00 +31°C° 0 mm 2 m/S 729 mmHg 34%
    08:00 +33°C° 0 mm 3 m/S 730 mmHg 30%
    09:00 +35°C° 0 mm 3 m/S 730 mmHg 26%
    10:00 +36°C° 0 mm 3 m/S 729 mmHg 25%
    11:00 +37°C° 0 mm 2 m/S 729 mmHg 24%
    12:00 +38°C° 0 mm 2 m/S 729 mmHg 23%
    13:00 +39°C° 0,1 mm 2 m/S 729 mmHg 23%
    14:00 +39°C° 0,1 mm 2 m/S 729 mmHg 23%
    15:00 +39°C° 0,1 mm 2 m/S 729 mmHg 22%
    16:00 +39°C° 0,3 mm 1 m/S 729 mmHg 24%
    17:00 +37°C° 0,3 mm 1 m/S 729 mmHg 25%
    18:00 +37°C° 0,3 mm 1 m/S 729 mmHg 27%
    19:00 +36°C° 0,1 mm 2 m/S 730 mmHg 30%
    20:00 +34°C° 0,1 mm 2 m/S 730 mmHg 34%
    21:00 +31°C° 0,1 mm 3 m/S 731 mmHg 38%
    22:00 +30°C° 0 mm 3 m/S 731 mmHg 39%
    23:00 +30°C° 0 mm 3 m/S 731 mmHg 41%

    27 Juli, Donnerstag

    Zeit Temperatur Niederschläge Wind Luftdruck Luftfeuchtigkeit
    00:00 +29°C° 0 mm 3 m/S 731 mmHg 43%
    01:00 +29°C° 0 mm 2 m/S 732 mmHg 43%
    02:00 +28°C° 0 mm 2 m/S 732 mmHg 43%
    03:00 +28°C° 0 mm 2 m/S 732 mmHg 43%
    04:00 +28°C° 0 mm 2 m/S 732 mmHg 42%
    05:00 +29°C° 0 mm 2 m/S 732 mmHg 41%
    06:00 +29°C° 0 mm 2 m/S 733 mmHg 40%
    07:00 +31°C° 0 mm 2 m/S 733 mmHg 35%
    08:00 +34°C° 0 mm 2 m/S 733 mmHg 31%
    09:00 +36°C° 0 mm 2 m/S 733 mmHg 26%
    10:00 +37°C° 0 mm 2 m/S 733 mmHg 25%
    11:00 +38°C° 0 mm 2 m/S 733 mmHg 24%
    12:00 +39°C° 0 mm 2 m/S 733 mmHg 23%
    13:00 +40°C° 0 mm 2 m/S 732 mmHg 23%
    14:00 +40°C° 0 mm 2 m/S 732 mmHg 22%
    15:00 +40°C° 0 mm 2 m/S 732 mmHg 22%
    16:00 +40°C° 0 mm 2 m/S 732 mmHg 23%
    17:00 +39°C° 0 mm 2 m/S 732 mmHg 24%
    18:00 +39°C° 0 mm 2 m/S 732 mmHg 26%
    19:00 +37°C° 0 mm 3 m/S 733 mmHg 28%
    20:00 +35°C° 0 mm 3 m/S 733 mmHg 31%
    21:00 +33°C° 0 mm 4 m/S 734 mmHg 34%
    22:00 +31°C° 0 mm 3 m/S 734 mmHg 36%
    23:00 +30°C° 0 mm 3 m/S 734 mmHg 37%

    28 Juli, Freitag

    Zeit Temperatur Niederschläge Wind Luftdruck Luftfeuchtigkeit
    00:00 +30°C° 0 mm 3 m/S 734 mmHg 39%
    01:00 +29°C° 0 mm 2 m/S 734 mmHg 39%
    02:00 +29°C° 0 mm 2 m/S 735 mmHg 39%
    03:00 +29°C° 0 mm 2 m/S 735 mmHg 40%
    04:00 +29°C° 0 mm 2 m/S 735 mmHg 39%
    05:00 +30°C° 0 mm 2 m/S 735 mmHg 39%
    06:00 +30°C° 0 mm 1 m/S 735 mmHg 39%
    07:00 +32°C° 0 mm 1 m/S 735 mmHg 35%
    08:00 +34°C° 0 mm 1 m/S 735 mmHg 31%
    09:00 +36°C° 0 mm 1 m/S 735 mmHg 27%
    10:00 +38°C° 0 mm 2 m/S 735 mmHg 26%
    11:00 +39°C° 0 mm 2 m/S 735 mmHg 25%
    12:00 +40°C° 0 mm 2 m/S 734 mmHg 24%
    13:00 +40°C° 0 mm 2 m/S 734 mmHg 23%
    14:00 +41°C° 0 mm 2 m/S 734 mmHg 22%
    15:00 +42°C° 0 mm 3 m/S 734 mmHg 22%
    16:00 +42°C° 0 mm 3 m/S 734 mmHg 23%
    17:00 +40°C° 0 mm 3 m/S 734 mmHg 24%
    18:00 +40°C° 0 mm 3 m/S 734 mmHg 25%
    19:00 +38°C° 0 mm 4 m/S 735 mmHg 28%
    20:00 +36°C° 0 mm 4 m/S 735 mmHg 31%
    21:00 +33°C° 0 mm 4 m/S 735 mmHg 35%
    22:00 +33°C° 0 mm 4 m/S 736 mmHg 36%
    23:00 +31°C° 0 mm 3 m/S 736 mmHg 38%
    Mehr zeigen